Location: Fishcreek Rd Observing Site
(41.1865°N, 81.4271°W)
Time: 06:58:41
(UTC-04:00)

Iridium 75 - Visible Passes

Search period start: 19 April 2015 00:00
Search period end: 29 April 2015 00:00
Orbit: 776 x 779 km, 86.4° (Epoch: 18 April)

Date Brightness Start Highest point End Pass type
(mag) Time Alt. Az. Time Alt. Az. Time Alt. Az.
19 Apr 8.0 01:19:51 24° NNW 01:19:51 24° NNW 01:22:02 10° N visible
20 Apr 7.8 00:46:15 28° N 00:46:15 28° N 00:48:39 10° N visible
21 Apr 7.8 00:12:38 26° NNE 00:12:38 26° NNE 00:14:59 10° NNE visible
21 Apr 8.4 01:53:05 15° NW 01:53:05 15° NW 01:54:34 10° NNW visible
21 Apr 8.0 23:39:01 19° NE 23:39:01 19° NE 23:40:58 10° NNE visible
22 Apr 8.0 01:19:28 23° NW 01:19:28 23° NW 01:21:52 10° NNW visible
22 Apr 8.3 23:05:23 13° NE 23:05:23 13° NE 23:06:20 10° NE visible
23 Apr 7.6 00:45:50 32° NNW 00:45:50 32° NNW 00:48:41 10° N visible
24 Apr 7.4 00:12:12 35° NNE 00:12:12 35° NNE 00:15:11 10° N visible
24 Apr 8.6 01:52:39 12° NW 01:52:39 12° NW 01:53:35 10° NW visible
24 Apr 7.5 23:38:33 28° NE 23:38:33 28° NE 23:41:23 10° NNE visible
25 Apr 8.1 01:19:00 20° NW 01:19:00 20° NW 01:21:32 10° NNW visible
25 Apr 7.8 23:04:53 19° NE 23:04:53 19° NE 23:07:11 10° NNE visible
26 Apr 7.5 00:45:20 32° NW 00:45:20 32° NW 00:48:35 10° NNW visible
26 Apr 8.2 22:31:13 11° ENE 22:31:13 11° ENE 22:31:55 10° NE visible
27 Apr 7.0 00:11:40 45° N 00:11:40 45° N 00:15:16 10° N visible
27 Apr 6.9 23:37:59 42° NE 23:37:59 42° NE 23:41:39 10° N visible
28 Apr 8.3 01:18:26 16° WNW 01:18:26 16° WNW 01:20:54 10° NW visible
28 Apr 7.3 23:04:17 28° ENE 23:04:17 28° ENE 23:07:42 10° NNE visible
